Location: Newark
(48.0000°N, 67.0000°E)
Time: 19:20:19
(UTC+00:00)

TIGRISAT - Visible Passes

Search period start: 10 April 2020 00:00
Search period end: 20 April 2020 00:00
Orbit: 606 x 688 km, 97.7° (Epoch: 10 April)

Date Brightness Start Highest point End Pass type
(mag) Time Alt. Az. Time Alt. Az. Time Alt. Az.
10 Apr ? 15:27:35 10° NNE 15:31:45 35° E 15:35:25 12° SSE visible
10 Apr ? 17:04:27 10° N 17:08:19 28° WNW 17:12:04 10° WSW visible
11 Apr ? 15:53:01 10° NNE 15:57:31 63° ESE 16:01:30 12° S visible
11 Apr ? 17:30:45 10° NNW 17:33:42 17° WNW 17:36:36 10° W visible
12 Apr ? 16:18:40 10° N 16:23:10 73° WNW 16:27:31 10° SSW visible
12 Apr ? 17:58:05 10° NW 17:58:59 11° NW 17:59:54 10° WNW visible
13 Apr ? 15:08:17 10° NE 15:11:52 23° E 15:15:21 10° SE visible
13 Apr ? 16:44:30 10° N 16:48:44 41° WNW 16:52:50 10° SW visible
14 Apr ? 15:33:29 10° NNE 15:37:43 40° E 15:41:49 10° SSE visible
14 Apr ? 17:10:34 10° N 17:14:12 25° WNW 17:17:44 10° WSW visible
15 Apr ? 15:58:59 10° NNE 16:03:27 73° ESE 16:07:47 10° S visible
15 Apr ? 17:37:00 10° NNW 17:39:33 15° WNW 17:42:04 10° W visible
16 Apr ? 16:24:40 10° N 16:29:06 63° WNW 16:33:22 10° SSW visible
17 Apr ? 15:14:07 10° NE 15:17:51 26° E 15:21:29 10° SSE visible
17 Apr ? 16:50:34 10° N 16:54:37 35° WNW 16:58:34 10° SW visible
18 Apr ? 15:39:24 10° NNE 15:43:40 46° E 15:47:49 10° S visible
18 Apr ? 17:16:42 10° NNW 17:20:03 21° WNW 17:23:20 10° WSW visible
19 Apr ? 16:04:56 10° NNE 16:09:23 84° ESE 16:13:41 10° SSW visible
19 Apr ? 17:43:20 10° NNW 17:45:23 13° WNW 17:47:26 10° W visible
